Home   Weather   Bridgewater   Past weeks

Flag for USA Past Weather in Bridgewater, Massachusetts, USA — Yesterday and Last 2 Weeks

Now
39 °F

Rain. Fog.


Feels Like: 31 °F
Forecast: 37 / 46 °F
Wind: 13 mph from Northeast

Location: Taunton Municipal Airport

Current Time: Jan 24, 2017 at 2:16:49 am

Latest Report: Jan 24, 2017 at 12:52 am


Visibility: 4 mi

Pressure: 29.62 "Hg

Humidity: 93%

Dew Point: 37 °F

Location of BridgewaterLocation

Past Weather in Bridgewater — Graph

°F

Bridgewater Temperature Yesterday

Maximum temperature yesterday: 41 °F (at 12:52 am)
Minimum temperature yesterday: 36 °F (at 5:52 am)
Average temperature yesterday: 38 °F

High & Low Weather Summary for the Past Weeks

 TemperatureHumidityPressure
High56 °F (Jan 11, 12:52 pm)97% (Jan 11, 9:52 pm)30.70 "Hg (Jan 11, 9:52 pm)
Low-9 °F (Jan 9, 5:52 am)28% (Jan 13, 2:52 pm)29.62 "Hg (Jan 24, 12:52 am)
Average36 °F76%30.15 "Hg
* Reported Jan 9 12:52 am — Jan 24 12:52 am, Bridgewater, Weather by CustomWeather, © 2017

Note: Actual official high and low records may vary slightly from our data, if they occured in-between our weather recording intervals... More about our weather records

Advertising

Bridgewater Weather History for the Previous 24 Hours

Scroll right to see more
 ConditionsComfort  
Time TempWeatherWind HumidityBarometerVisibility
12:52 am
Tue, Jan 24
39 °FRain. Fog.13 mph93%29.62 "Hg4 mi
11:52 pm
Mon, Jan 23
39 °FRain. Fog.13 mph89%29.67 "Hg3 mi
10:52 pm39 °FRain. Fog.12 mph89%29.71 "Hg4 mi
9:52 pm39 °FRain. Fog.10 mph89%29.75 "Hg4 mi
8:52 pm39 °FRain. Fog.12 mph89%29.77 "Hg3 mi
8:26 pm38 °FRain. Fog.10 mph93%29.78 "Hg3 mi
7:52 pm38 °FLight rain. Fog.10 mph90%29.78 "Hg3 mi
6:52 pm37 °FLight rain. Fog.13 mph89%29.81 "Hg4 mi
5:52 pm39 °FOvercast.10 mph76%29.83 "Hg10 mi
4:52 pm38 °FMostly cloudy.14 mph76%29.87 "Hg10 mi
4:37 pm38 °FCloudy.10 mph76%29.87 "Hg10 mi
3:52 pm38 °FPartly sunny.14 mph76%29.88 "Hg10 mi
2:52 pm37 °FLight rain. Mostly cloudy.13 mph82%29.90 "Hg10 mi
1:52 pm38 °FLight rain. Mostly cloudy.9 mph79%29.90 "Hg10 mi
12:52 pm38 °FLight rain. More clouds than sun.14 mph76%29.93 "Hg10 mi
11:52 am37 °FLight rain. Mostly cloudy.9 mph82%29.97 "Hg10 mi
10:52 am37 °FLight rain. Cloudy.13 mph86%29.97 "Hg9 mi
9:52 am38 °FLight rain. Mostly cloudy.8 mph76%29.99 "Hg10 mi
9:04 am38 °FPartly sunny.9 mph79%30.00 "Hg10 mi
8:27 am36 °FScattered clouds.10 mph85%29.99 "Hg10 mi
8:03 am36 °FBroken clouds.9 mph85%29.98 "Hg10 mi
6:52 am36 °FLight rain. Mostly cloudy.9 mph82%29.98 "Hg10 mi
6:37 am36 °FLight rain. Passing clouds.10 mph82%29.97 "Hg10 mi
5:52 am36 °FLight rain. Overcast.12 mph82%29.97 "Hg10 mi
4:52 am37 °FLight rain. Mostly cloudy.8 mph82%29.94 "Hg8 mi
4:02 am39 °FOvercast.8 mph73%29.94 "Hg10 mi
3:52 am39 °FMostly cloudy.8 mph73%29.95 "Hg10 mi
2:52 am40 °FMostly cloudy.6 mph70%29.95 "Hg10 mi
Weather by CustomWeather, © 2017

See weather overviewHow to use our weather pages